Weather in Tole bi

Kazakhstan     43°41′45″N   73°44′53″E
temp.,
°C
wind,
m/s
gust,
m/s
humid.,
%
clouds,
%
prec.,
mm/h
press.,
hPa
HPBL,
m
15 april, thu
thu1500:00+14ene817280 0.0 1016414
03:00+11ene715320 0.0 1015327
06:00+9ene7134040 0.0 1015264
09:00+13ene79430 0.0 1015337
12:00+21ene44330 0.0 10141023
15:00+24ne33280 0.0 10121638
18:00+23e4435100 0.0 10131091
21:00+16e4752100 0.1 101495
16 april, fri
fri1600:00+15se46490 0.1 101488
03:00+13sse34586 0.0 101350
06:00+11s336626 0.2 101531
09:00+15s34544 0.5 1016318
12:00+21w34312 0.5 10151204
15:00+23wnw5525100 0.0 10142486
18:00+22nw3430100 0.0 10141496
21:00+18wnw473790 0.0 1016146
17 april, sat
sat1700:00+17ssw3342100 0.0 101654
03:00+15wsw344173 0.0 101551
06:00+12sw224949 0.0 101613
09:00+17wsw35425 0.0 1017473
12:00+21w583096 0.0 10171869
15:00+22wnw6828100 0.0 10162269
18:00+21nw4529100 0.0 10161577
21:00+15nnw2241100 0.0 101711
18 april, sun
sun1800:00+14se3343100 0.0 101719
03:00+13sse3356100 0.0 101715
06:00+11s3364100 0.0 101719
09:00+16s3454100 0.0 1018213
12:00+19ssw2340100 0.0 1018752
15:00+21w4627100 0.0 10172293
18:00+19ssw5736100 0.0 1017311
21:00+15wsw4758100 0.1 1020250
19 april, mon
mon1900:00+12se3476100 0.8 1020118
03:00+11s5107540 0.2 1018177
06:00+10s59743 0.2 1018137
09:00+15s44520 0.0 1018317
12:00+21ssw25285 0.0 10162138
15:00+23wnw35198 0.0 10143168
18:00+22nw34225 0.0 10132494
21:00+16ese2228100 0.0 101411